Regional Weather Roundup
Issued by NWS

Home | Current Version | Previous Version | Text Only | Print | Product List | Glossary On
Versions: 1 2 3 4 5 6 7 8 9 10 11 12 13 14 15 16 17 18 19 20 21 22 23 24 25 26 27 28 29 30 31 32 33 34 35 36 37 38 39 40 41 42 43 44 45 46 47 48 49 50
000
ASUS43 KMPX 281801
RWRMN
WEATHER ROUNDUP FOR MINNESOTA
NATIONAL WEATHER SERVICE TWIN CITIES/CHANHASSEN MN
100 PM CDT TUE APR 28 2015


NOTE: "FAIR" INDICATES FEW OR NO CLOUDS BELOW 12,000 FEET WITH NO
SIGNIFICANT WEATHER AND/OR OBSTRUCTIONS TO VISIBILITY. N/A MEANS
CURRENT SKY AND/OR WEATHER CONDITIONS ARE NOT AVAILABLE.

MNZ060>063-068>070-281900-
   Twin Cities Metro

CITY           SKY/WX    TMP DP  RH WIND       PRES   REMARKS
TWIN CITIES    CLOUDY    63  40  42 NW10      30.15F
6HR MIN TEMP:  47; 6HR MAX TEMP:  64;

ST PAUL        CLOUDY    65  39  38 N15       30.15F
CRYSTAL        LGT RAIN  62  42  47 N13       30.15F
BLAINE         CLOUDY    63  43  48 NW10      30.16S
LAKEVILLE      CLOUDY    63  39  42 N12       30.14F
EDEN PRAIRIE   CLOUDY    61  41  47 NW10      30.15S
6HR MIN TEMP:  45; 6HR MAX TEMP:  62;

SOUTH ST PAUL  CLOUDY    64  36  35 N9        30.14F
LAKE ELMO      PTSUNNY   63  37  39 N10G20    30.15S
$$
MNZ001>005-007-008-013>017-022>024-027-028-281900-
   Northwest Minnesota

CITY           SKY/WX    TMP DP  RH WIND       PRES   REMARKS
BEMIDJI        SUNNY     53  37  54 NW10G21   30.21F
HALLOCK        SUNNY     57  37  47 CALM      30.24F
ROSEAU         SUNNY     61  27  27 N9        30.21F
WARROAD        SUNNY     54  37  54 E6        30.22F
THIEF RVR FALL SUNNY     57  32  38 N9        30.23F
CROOKSTON      SUNNY     55  39  54 N3        30.25F
FOSSTON        SUNNY     57  39  51 N13       30.23F
DETROIT LAKES  SUNNY     57  34  41 N7        30.23S
MOORHEAD       MOSUNNY   55  39  54 N10       30.25F
PARK RAPIDS    MOSUNNY   55  41  59 N12       30.20F
MAHNOMEN       FAIR      57  37  46 N14G22    30.23S
$$
MNZ006-009>011-018-025>026-281900-
   North Central Minnesota

CITY           SKY/WX    TMP DP  RH WIND       PRES   REMARKS
BAUDETTE       SUNNY     54  31  41 NW16G24   30.21F
FLAG ISLAND    MOSUNNY   48  34  57 N13       30.21F
INTL FALLS     SUNNY     57  36  45 NW9       30.16F
6HR MIN TEMP:  43; 6HR MAX TEMP:  58; 6HR PCP:  0.01;

WASKISH        SUNNY     54  41  62 CALM      30.20F
BIG FORK       SUNNY     61  36  39 NW6       30.17F
LONGVILLE      PTSUNNY   54  45  71 W6        30.18F
GRAND RAPIDS   SUNNY     55  41  58 NW13      30.16F
CRANE LAKE     SUNNY     55  36  47 NW7       30.16F
ORR            SUNNY     55  37  50 W6        30.13F
COOK           MOSUNNY   55  41  58 NW8       30.15F
WALKER         MOCLDY    52  43  70 N6        30.20F
$$
MNZ012-019>021-037-281900-
   Northeast Minnesota

CITY           SKY/WX    TMP DP  RH WIND       PRES   REMARKS
DULUTH         PTSUNNY   59  42  53 N7        30.13F
6HR MIN TEMP:  42; 6HR MAX TEMP:  60;

ELY            PTSUNNY   59  43  55 NW8       30.11F
HIBBING        CLOUDY    60  41  49 NW9       30.13F
EVELETH        MOSUNNY   59  41  51 NW10      30.13F
DULUTH HARBOR  PTSUNNY   59  39  47 CALM      30.13F
TWO HARBORS    PTSUNNY   64  45  48 NW5       30.09F
SILVER BAY     CLOUDY    64  41  42 CALM      30.09F
GRAND MARAIS     N/A     41  35  79 CALM      30.09F
G MARAIS ARPRT PTSUNNY   57  37  47 NW10      30.11F
$$
MNZ029>031-032-039>041-046>048-054>057-064-281900-
   West Central Minnesota

CITY           SKY/WX    TMP DP  RH WIND       PRES   REMARKS
FERGUS FALLS   SUNNY     57  36  44 N12G18    30.22F
WHEATON        SUNNY     57  36  44 N17G24    30.24F
MORRIS         CLOUDY    52  46  82 N15       30.21F
ALEXANDRIA     CLOUDY    50  45  83 N10       30.20F
ELBOW LAKE     CLOUDY    53  44  71 N13       30.20F
WADENA         CLOUDY    52  45  76 N9        30.20F
GLENWOOD       PTSUNNY   54  46  76 N8        30.20S
APPLETON       MOSUNNY   54  46  76 N15       30.22F
BENSON         CLOUDY    54  45  71 N10       30.21S
ORTONVILLE     MOSUNNY   55  41  58 N13G24    30.22F
MADISON        CLOUDY    54  45  71 N15       30.22F
WILLMAR        FAIR      61  48  63 N10G16    30.18F
$$
MNZ033>034-036-042>043-049>051-058-059-281900-
   Central Minnesota

CITY           SKY/WX    TMP DP  RH WIND       PRES   REMARKS
ST CLOUD       PTSUNNY   61  43  51 N8        30.15F
6HR MIN TEMP:  48; 6HR MAX TEMP:  61; 6HR PCP: TRACE;

SAUK CENTRE    CLOUDY    55  45  70 N10       30.18F
PAYNESVILLE    CLOUDY    56  45  65 NW9       30.17F
AITKIN         MOSUNNY   64  39  39 NW8       30.13F
PINE RIVER     SUNNY     55  45  67 NW9       30.20F
BRAINERD       SUNNY     57  43  59 N12       30.17F
STAPLES        MOSUNNY   55  45  67 NW6       30.18F
LONG PRAIRIE   CLOUDY    57  46  67 NW7       30.18F
LITTLE FALLS   PTSUNNY   59  41  51 N6        30.16F
LITCHFIELD     PTSUNNY   63  45  51 NW12      30.16F
BUFFALO        CLOUDY    58  45  62 NE5       30.16F
MAPLE LAKE     CLOUDY    60  48  62 NW3       30.17S
$$
MNZ037-044-045-052-053-281900-
   East Central Minnesota

CITY           SKY/WX    TMP DP  RH WIND       PRES   REMARKS
PRINCETON      DRIZZLE   61  46  59 N3        30.16F
MORA           PTSUNNY   54  41  62 W5        30.17F
CAMBRIDGE      PTSUNNY   61  45  55 NW6       30.14F
RUSH CITY      CLOUDY    60  40  48 NW7       30.15F
MOOSE LAKE     CLOUDY    59  41  51 CALM      30.13F
HINCKLEY       CLOUDY    61  41  48 NW6       30.14F
CLOQUET        PTSUNNY   61  39  44 CALM      30.13F
MCGREGOR       MOSUNNY   63  43  48 NW9       30.14F
$$
MNZ071>073-080-081-089-090-097-098-281900-
   Southwest Minnesota

CITY           SKY/WX    TMP DP  RH WIND       PRES   REMARKS
MONTEVIDEO     CLOUDY    55  46  71 N17       30.21F
GRANITE FALLS  PTSUNNY   58  46  65 NW16G23   30.21F
CANBY          MOSUNNY   56  44  64 N17G24    30.22F
MARSHALL       PTSUNNY   61  43  51 NW15G23   30.19F
REDWOOD FALLS    N/A     63  46  54 N9        30.16F
OLIVIA         CLOUDY    57  43  58 NW15      30.16F
PIPESTONE      SUNNY     59  45  58 N10G18    30.20F
WINDOM         PTSUNNY   57  45  62 NW13      30.19F
WORTHINGTON    CLOUDY    57  43  58 NW9       30.19F
JACKSON        CLOUDY    59  41  51 NW10      30.19S
TRACY          MOSUNNY   62  46  55 N13G20    30.19F
SLAYTON        MOSUNNY   60  45  58 NW14      30.20F
$$
MNZ065>067-074>077-082>085-091>093-281900-
   South Central Minnesota

CITY           SKY/WX    TMP DP  RH WIND       PRES   REMARKS
MANKATO        CLOUDY    61  39  44 N10       30.16F
NEW ULM        PTSUNNY   63  43  48 NW8       30.15F
ST JAMES       PTSUNNY   63  41  45 W12       30.17F
FAIRMONT       CLOUDY    63  36  36 NE14      30.15F
GLENCOE        CLOUDY    62  47  57 N3        30.15S
FARIBAULT      CLOUDY    64  36  34 NW12      30.15S
OWATONNA       CLOUDY    63  34  34 N16G22    30.15R
WASECA         CLOUDY    64  36  34 NW14      30.16F
ALBERT LEA     PTSUNNY   66  30  26 NW13G18   30.13F
$$
MNZ078>079-086>088-094>096-281900-
   Southeast Minnesota

CITY           SKY/WX    TMP DP  RH WIND       PRES   REMARKS
ROCHESTER      MOSUNNY   70  33  25 N13G22    30.10F
6HR MIN TEMP:  43; 6HR MAX TEMP:  71;

RED WING       PTSUNNY   68  28  22 N13       30.10F
STANTON        CLOUDY    65  33  30 N12       30.13S
DODGE CENTER   PTSUNNY   66  34  30 N16       30.12S
WINONA         SUNNY     70  32  24 W5        30.09F
AUSTIN         MOSUNNY   66  34  30 NW15      30.11S
PRESTON        SUNNY     67  31  26 NW12      30.10F
$$
ABBREVIATIONS USED IN REMARKS
   TC - TEMPERATURES IN CELSIUS
  WCI - WIND CHILL INDEX
   HX - HEAT INDEX
  VSB - VISIBILITY
$$


USA.gov is the U.S. government's official web portal to all federal, state and local government web resources and services.